CFG2LW EDDL-EGGP

Flight info

Callsign CFG2LW
Flight time 1h 14m
Altitude 36000
Route SONEB8T SONEB P64 TENLI L980 FLEVO L602 SPY DCT RAVLO Y70 VEGUS
Aircraft A321/M-SDE3FGHIRWY/LB1

Departure

Time 2026-05-04 20:29
Airport Düsseldorf Airport (EDDL)

Arrival

Time 2026-05-04 21:43
Airport Liverpool John Lennon Airport (EGGP)
Time Latitude Longitude Altitude Speed Heading
2026-05-04 19:51 51.27597 6.75953 129 ft 0 kts 65°
2026-05-04 20:21 51.27599 6.75959 127 ft 3 kts 65°
2026-05-04 20:21 51.27616 6.76012 125 ft 7 kts 54°
2026-05-04 20:21 51.27745 6.76043 130 ft 12 kts
2026-05-04 20:22 51.27827 6.76021 127 ft 11 kts 316°
2026-05-04 20:22 51.27844 6.75915 127 ft 9 kts 272°
2026-05-04 20:22 51.27883 6.75822 126 ft 14 kts 349°
2026-05-04 20:22 51.27977 6.75821 127 ft 13 kts
2026-05-04 20:23 51.28052 6.75862 127 ft 13 kts 46°
2026-05-04 20:23 51.28114 6.75991 124 ft 16 kts 53°
2026-05-04 20:23 51.28187 6.76143 125 ft 18 kts 53°
2026-05-04 20:23 51.28269 6.76314 126 ft 19 kts 52°
2026-05-04 20:24 51.28347 6.76475 120 ft 17 kts 52°
2026-05-04 20:24 51.28411 6.76612 123 ft 14 kts 53°
2026-05-04 20:24 51.28460 6.76716 121 ft 10 kts 52°
2026-05-04 20:24 51.28496 6.76789 121 ft 7 kts 52°
2026-05-04 20:25 51.28525 6.76849 125 ft 11 kts 53°
2026-05-04 20:25 51.28599 6.77002 126 ft 22 kts 52°
2026-05-04 20:25 51.28689 6.77192 128 ft 21 kts 53°
2026-05-04 20:25 51.28775 6.77374 128 ft 20 kts 54°
2026-05-04 20:26 51.28857 6.77546 125 ft 19 kts 52°
2026-05-04 20:26 51.28934 6.77709 124 ft 18 kts 53°
2026-05-04 20:26 51.29006 6.77860 128 ft 16 kts 53°
2026-05-04 20:26 51.29072 6.77997 126 ft 15 kts 53°
2026-05-04 20:27 51.29126 6.78113 133 ft 11 kts 53°
2026-05-04 20:27 51.29178 6.78222 137 ft 15 kts 53°
2026-05-04 20:27 51.29236 6.78343 142 ft 14 kts 52°
2026-05-04 20:27 51.29297 6.78471 147 ft 16 kts 53°
2026-05-04 20:28 51.29365 6.78565 152 ft 10 kts 18°
2026-05-04 20:28 51.29447 6.78566 152 ft 14 kts 356°
2026-05-04 20:28 51.29514 6.78494 151 ft 13 kts 275°
2026-05-04 20:28 51.29471 6.78362 148 ft 17 kts 237°
2026-05-04 20:29 51.29346 6.78112 141 ft 54 kts 231°
2026-05-04 20:29 51.28964 6.77300 127 ft 125 kts 233°
2026-05-04 20:29 51.28324 6.75965 225 ft 168 kts 232°
2026-05-04 20:29 51.27630 6.74471 934 ft 168 kts 234°
2026-05-04 20:30 51.26958 6.72923 1623 ft 172 kts 237°
2026-05-04 20:30 51.26744 6.71035 1976 ft 184 kts 286°
2026-05-04 20:30 51.27539 6.69488 2479 ft 190 kts 327°
2026-05-04 20:30 51.28765 6.68658 3028 ft 195 kts 346°
2026-05-04 20:31 51.30163 6.68591 3418 ft 212 kts
2026-05-04 20:31 51.31716 6.68790 3625 ft 237 kts
2026-05-04 20:31 51.33449 6.68991 3998 ft 259 kts
2026-05-04 20:31 51.35275 6.69194 4706 ft 267 kts
2026-05-04 20:32 51.37140 6.69396 5497 ft 270 kts
2026-05-04 20:32 51.39030 6.69588 6291 ft 273 kts
2026-05-04 20:32 51.40918 6.69671 7072 ft 276 kts 358°
2026-05-04 20:32 51.42848 6.69677 7842 ft 279 kts 358°
2026-05-04 20:33 51.44799 6.69656 8586 ft 282 kts 357°
2026-05-04 20:33 51.46774 6.69630 9325 ft 285 kts 358°
2026-05-04 20:33 51.48775 6.69611 10039 ft 289 kts 358°
2026-05-04 20:33 51.50838 6.69600 10387 ft 307 kts 358°
2026-05-04 20:34 51.53055 6.69591 10530 ft 330 kts 358°
2026-05-04 20:34 51.55425 6.69588 10787 ft 348 kts 358°
2026-05-04 20:34 51.57863 6.69595 11364 ft 354 kts 358°
2026-05-04 20:34 51.60310 6.69608 12009 ft 357 kts 358°
2026-05-04 20:35 51.62808 6.69743 12652 ft 362 kts
2026-05-04 20:35 51.65322 6.70173 13291 ft 365 kts
2026-05-04 20:35 51.67860 6.70604 13930 ft 368 kts
2026-05-04 20:35 51.70417 6.71035 14547 ft 372 kts
2026-05-04 20:36 51.73004 6.71469 15154 ft 375 kts
2026-05-04 20:36 51.75609 6.71907 15740 ft 378 kts
2026-05-04 20:36 51.78239 6.72351 16307 ft 382 kts
2026-05-04 20:36 51.80890 6.72798 16859 ft 385 kts
2026-05-04 20:37 51.83530 6.73239 17394 ft 388 kts
2026-05-04 20:37 51.86224 6.73687 17920 ft 391 kts
2026-05-04 20:37 51.88941 6.74141 18429 ft 394 kts
2026-05-04 20:37 51.91674 6.74604 18923 ft 397 kts
2026-05-04 20:38 51.94430 6.75072 19408 ft 400 kts
2026-05-04 20:38 51.97215 6.75197 19867 ft 401 kts 353°
2026-05-04 20:38 51.99946 6.74361 20325 ft 401 kts 341°
2026-05-04 20:38 52.02511 6.72591 20764 ft 402 kts 329°
2026-05-04 20:39 52.04763 6.69993 21202 ft 403 kts 317°
2026-05-04 20:39 52.06647 6.66633 21640 ft 404 kts 305°
2026-05-04 20:39 52.08282 6.62890 22060 ft 407 kts 304°
2026-05-04 20:39 52.09915 6.59130 22474 ft 409 kts 304°
2026-05-04 20:40 52.11560 6.55335 22893 ft 412 kts 304°
2026-05-04 20:40 52.13216 6.51516 23306 ft 414 kts 304°
2026-05-04 20:40 52.14886 6.47673 23715 ft 417 kts 304°
2026-05-04 20:40 52.16563 6.43811 24090 ft 419 kts 304°
2026-05-04 20:41 52.18249 6.39919 24462 ft 422 kts 304°
2026-05-04 20:41 52.19945 6.35995 24832 ft 424 kts 304°
2026-05-04 20:41 52.21643 6.32048 25189 ft 426 kts 304°
2026-05-04 20:41 52.23321 6.28135 25532 ft 429 kts 303°
2026-05-04 20:42 52.24807 6.23914 25869 ft 430 kts 294°
2026-05-04 20:42 52.25890 6.19361 26206 ft 432 kts 289°
2026-05-04 20:42 52.26888 6.14718 26544 ft 434 kts 289°
2026-05-04 20:42 52.27891 6.10062 26875 ft 436 kts 289°
2026-05-04 20:43 52.28902 6.05378 27178 ft 438 kts 289°
2026-05-04 20:43 52.29918 6.00675 27480 ft 440 kts 289°
2026-05-04 20:43 52.30939 5.95940 27774 ft 442 kts 289°
2026-05-04 20:43 52.31947 5.91248 28056 ft 444 kts 289°
2026-05-04 20:44 52.32972 5.86468 28337 ft 446 kts 289°
2026-05-04 20:44 52.33997 5.81667 28623 ft 448 kts 289°
2026-05-04 20:44 52.35023 5.76849 28906 ft 450 kts 289°
2026-05-04 20:44 52.36054 5.72002 29179 ft 452 kts 289°
2026-05-04 20:45 52.37086 5.67133 29445 ft 454 kts 289°
2026-05-04 20:45 52.38119 5.62242 29763 ft 454 kts 289°
2026-05-04 20:45 52.39148 5.57372 30121 ft 453 kts 289°
2026-05-04 20:45 52.40178 5.52500 30465 ft 452 kts 289°
2026-05-04 20:46 52.41202 5.47639 30815 ft 451 kts 288°
2026-05-04 20:46 52.42203 5.42847 31143 ft 451 kts 288°
2026-05-04 20:46 52.43214 5.37989 31491 ft 450 kts 288°
2026-05-04 20:46 52.44222 5.33135 31828 ft 449 kts 288°
2026-05-04 20:47 52.45228 5.28287 32167 ft 449 kts 288°
2026-05-04 20:47 52.46230 5.23453 32494 ft 448 kts 288°
2026-05-04 20:47 52.47231 5.18616 32819 ft 447 kts 288°
2026-05-04 20:47 52.48228 5.13788 33141 ft 447 kts 288°
2026-05-04 20:48 52.49220 5.08967 33459 ft 446 kts 288°
2026-05-04 20:48 52.50212 5.04143 33762 ft 445 kts 288°
2026-05-04 20:48 52.51185 4.99399 34070 ft 445 kts 288°
2026-05-04 20:48 52.52168 4.94584 34364 ft 444 kts 288°
2026-05-04 20:49 52.53144 4.89779 34654 ft 444 kts 288°
2026-05-04 20:49 52.54118 4.84972 34920 ft 443 kts 288°
2026-05-04 20:49 52.55132 4.80194 35139 ft 443 kts 289°
2026-05-04 20:49 52.56206 4.75447 35375 ft 443 kts 290°
2026-05-04 20:50 52.57312 4.70729 35595 ft 442 kts 291°
2026-05-04 20:50 52.58429 4.66027 35818 ft 442 kts 291°
2026-05-04 20:50 52.59540 4.61312 35975 ft 442 kts 290°
2026-05-04 20:50 52.60615 4.56672 36009 ft 439 kts 290°
2026-05-04 20:51 52.62745 4.47278 36010 ft 438 kts 290°
2026-05-04 20:51 52.64851 4.37867 36011 ft 438 kts 290°
2026-05-04 20:52 52.66955 4.28461 36009 ft 438 kts 290°
2026-05-04 20:52 52.69045 4.19115 36008 ft 438 kts 290°
2026-05-04 20:53 52.71144 4.09682 36012 ft 438 kts 289°
2026-05-04 20:53 52.73232 4.00252 36012 ft 438 kts 289°
2026-05-04 20:54 52.75312 3.90807 36014 ft 438 kts 289°
2026-05-04 20:54 52.77372 3.81415 36015 ft 438 kts 289°
2026-05-04 20:55 52.79443 3.71952 36016 ft 438 kts 289°
2026-05-04 20:55 52.81524 3.62370 36010 ft 447 kts 289°
2026-05-04 20:56 52.83625 3.52650 36009 ft 450 kts 289°
2026-05-04 20:56 52.85712 3.42969 36007 ft 450 kts 289°
2026-05-04 20:57 52.87806 3.33213 36007 ft 450 kts 289°
2026-05-04 20:57 52.89882 3.23443 36010 ft 450 kts 289°
2026-05-04 20:58 52.91865 3.13617 36011 ft 450 kts 283°
2026-05-04 20:58 52.93214 3.03499 36014 ft 450 kts 282°
2026-05-04 20:59 52.94542 2.93437 36016 ft 450 kts 282°
2026-05-04 20:59 52.95871 2.83298 36018 ft 450 kts 282°
2026-05-04 21:00 52.97180 2.73151 36019 ft 450 kts 282°
2026-05-04 21:00 52.98486 2.62996 36019 ft 450 kts 282°
2026-05-04 21:01 52.99794 2.52835 36019 ft 450 kts 282°
2026-05-04 21:01 53.01083 2.42745 36020 ft 450 kts 282°
2026-05-04 21:02 53.02364 2.32573 36021 ft 450 kts 281°
2026-05-04 21:02 53.03638 2.22391 36020 ft 450 kts 281°
2026-05-04 21:03 53.04896 2.12216 36020 ft 450 kts 281°
2026-05-04 21:03 53.06143 2.02093 36019 ft 450 kts 281°
2026-05-04 21:04 53.07398 1.91900 36020 ft 450 kts 281°
2026-05-04 21:04 53.08647 1.81707 36019 ft 450 kts 281°
2026-05-04 21:05 53.09875 1.71497 36020 ft 450 kts 281°
2026-05-04 21:05 53.11079 1.61350 36020 ft 450 kts 281°
2026-05-04 21:06 53.12290 1.51133 36020 ft 450 kts 281°
2026-05-04 21:06 53.13500 1.40916 36020 ft 450 kts 281°
2026-05-04 21:07 53.14697 1.30685 36019 ft 450 kts 281°
2026-05-04 21:07 53.15884 1.20456 36019 ft 450 kts 281°
2026-05-04 21:08 53.17054 1.10286 36019 ft 450 kts 280°
2026-05-04 21:08 53.18218 1.00049 36017 ft 450 kts 280°
2026-05-04 21:09 53.19375 0.89800 36017 ft 450 kts 280°
2026-05-04 21:09 53.20527 0.79546 36018 ft 450 kts 280°
2026-05-04 21:10 53.21662 0.69358 36018 ft 450 kts 280°
2026-05-04 21:10 53.22799 0.59095 36018 ft 450 kts 280°
2026-05-04 21:11 53.23925 0.48822 36019 ft 450 kts 280°
2026-05-04 21:11 53.25038 0.38541 36020 ft 450 kts 280°
2026-05-04 21:12 53.26143 0.28334 36020 ft 450 kts 280°
2026-05-04 21:12 53.27247 0.18041 36020 ft 450 kts 279°
2026-05-04 21:13 53.28330 0.07746 36018 ft 450 kts 281°
2026-05-04 21:13 53.30351 -0.02110 36016 ft 450 kts 296°
2026-05-04 21:14 53.31736 -0.06797 35834 ft 449 kts 296°
2026-05-04 21:14 53.33096 -0.11421 35115 ft 450 kts 295°
2026-05-04 21:14 53.34473 -0.16135 34362 ft 451 kts 295°
2026-05-04 21:14 53.35851 -0.20872 33597 ft 453 kts 295°
2026-05-04 21:15 53.37229 -0.25620 32817 ft 454 kts 295°
2026-05-04 21:15 53.38527 -0.30450 32027 ft 455 kts 289°
2026-05-04 21:15 53.39414 -0.35536 31222 ft 456 kts 281°
2026-05-04 21:15 53.39845 -0.40802 30382 ft 456 kts 273°
2026-05-04 21:16 53.39866 -0.46092 29177 ft 455 kts 269°
2026-05-04 21:16 53.39786 -0.51416 27763 ft 459 kts 268°
2026-05-04 21:16 53.39697 -0.56707 26295 ft 462 kts 268°
2026-05-04 21:16 53.39602 -0.62093 24726 ft 465 kts 268°
2026-05-04 21:17 53.39502 -0.67527 23653 ft 465 kts 268°
2026-05-04 21:17 53.39403 -0.72909 22942 ft 458 kts 268°
2026-05-04 21:17 53.39303 -0.78210 22184 ft 453 kts 268°
2026-05-04 21:17 53.39203 -0.83446 21408 ft 447 kts 268°
2026-05-04 21:18 53.39102 -0.88625 20638 ft 442 kts 268°
2026-05-04 21:18 53.39002 -0.93737 19881 ft 437 kts 268°
2026-05-04 21:18 53.38901 -0.98801 19126 ft 433 kts 268°
2026-05-04 21:18 53.38800 -1.03743 18418 ft 428 kts 268°
2026-05-04 21:19 53.38696 -1.08704 17713 ft 424 kts 268°
2026-05-04 21:19 53.38591 -1.13610 17023 ft 419 kts 268°
2026-05-04 21:19 53.38485 -1.18467 16331 ft 415 kts 268°
2026-05-04 21:19 53.38378 -1.23281 15637 ft 411 kts 268°
2026-05-04 21:20 53.38272 -1.28018 14797 ft 406 kts 268°
2026-05-04 21:20 53.38166 -1.32726 14115 ft 402 kts 268°
2026-05-04 21:20 53.38060 -1.37392 13442 ft 398 kts 268°
2026-05-04 21:20 53.37953 -1.41938 12763 ft 394 kts 268°
2026-05-04 21:21 53.37840 -1.46506 12088 ft 391 kts 268°
2026-05-04 21:21 53.37727 -1.51020 11422 ft 387 kts 268°
2026-05-04 21:21 53.37612 -1.55503 10743 ft 383 kts 268°
2026-05-04 21:21 53.37496 -1.59882 10515 ft 368 kts 268°
2026-05-04 21:22 53.37685 -1.64097 10054 ft 360 kts 284°
2026-05-04 21:22 53.38403 -1.68007 9990 ft 341 kts 282°
2026-05-04 21:22 53.38610 -1.71841 10012 ft 322 kts 271°
2026-05-04 21:22 53.38646 -1.75487 10004 ft 305 kts 270°
2026-05-04 21:23 53.38668 -1.78935 10013 ft 289 kts 270°
2026-05-04 21:23 53.38689 -1.82205 10003 ft 283 kts 270°
2026-05-04 21:23 53.38636 -1.85490 9973 ft 281 kts 266°
2026-05-04 21:23 53.38492 -1.88733 9595 ft 279 kts 265°
2026-05-04 21:24 53.38317 -1.91952 9241 ft 277 kts 265°
2026-05-04 21:24 53.38136 -1.95153 8888 ft 275 kts 265°
2026-05-04 21:24 53.37955 -1.98326 8537 ft 273 kts 265°
2026-05-04 21:24 53.37776 -2.01482 8154 ft 271 kts 265°
2026-05-04 21:25 53.37600 -2.04618 7766 ft 270 kts 265°
2026-05-04 21:25 53.37426 -2.07732 7393 ft 268 kts 265°
2026-05-04 21:25 53.37256 -2.10790 7029 ft 266 kts 265°
2026-05-04 21:25 53.37086 -2.13864 6664 ft 264 kts 265°
2026-05-04 21:26 53.36917 -2.16925 6288 ft 263 kts 265°
2026-05-04 21:26 53.36751 -2.19969 5968 ft 260 kts 265°
2026-05-04 21:26 53.36587 -2.22921 5929 ft 247 kts 265°
2026-05-04 21:26 53.36429 -2.25716 5808 ft 236 kts 265°
2026-05-04 21:27 53.36277 -2.28412 5540 ft 230 kts 265°
2026-05-04 21:27 53.36127 -2.31059 5159 ft 228 kts 265°
2026-05-04 21:27 53.35981 -2.33653 4782 ft 226 kts 265°
2026-05-04 21:27 53.35833 -2.36265 4408 ft 225 kts 265°
2026-05-04 21:28 53.35684 -2.38865 4108 ft 224 kts 265°
2026-05-04 21:28 53.35535 -2.41456 3817 ft 223 kts 265°
2026-05-04 21:28 53.35387 -2.44026 3519 ft 222 kts 265°
2026-05-04 21:28 53.35237 -2.46600 3239 ft 221 kts 264°
2026-05-04 21:29 53.35086 -2.49153 2951 ft 220 kts 265°
2026-05-04 21:29 53.34937 -2.51698 2685 ft 219 kts 265°
2026-05-04 21:29 53.34790 -2.54233 2435 ft 217 kts 264°
2026-05-04 21:29 53.34642 -2.56742 2203 ft 217 kts 264°
2026-05-04 21:30 53.34508 -2.59218 2044 ft 215 kts 265°
2026-05-04 21:30 53.34397 -2.61681 1964 ft 207 kts 266°
2026-05-04 21:30 53.34298 -2.64000 1917 ft 190 kts 266°
2026-05-04 21:30 53.34206 -2.66136 1934 ft 180 kts 266°
2026-05-04 21:31 53.34033 -2.70251 1584 ft 166 kts 266°
2026-05-04 21:31 53.33954 -2.72046 1352 ft 147 kts 266°
2026-05-04 21:31 53.33881 -2.73683 1156 ft 140 kts 266°
2026-05-04 21:32 53.33809 -2.75286 978 ft 137 kts 266°
2026-05-04 21:32 53.33739 -2.76861 789 ft 136 kts 265°
2026-05-04 21:32 53.33669 -2.78440 619 ft 135 kts 266°
2026-05-04 21:32 53.33605 -2.80002 436 ft 132 kts 265°
2026-05-04 21:33 53.33522 -2.81493 357 ft 127 kts 264°
2026-05-04 21:33 53.33437 -2.83004 228 ft 138 kts 266°
2026-05-04 21:33 53.33417 -2.84132 591 ft 152 kts 269°
2026-05-04 21:33 53.33380 -2.85933 1437 ft 159 kts 268°
2026-05-04 21:34 53.33402 -2.87877 1694 ft 176 kts 273°
2026-05-04 21:34 53.33424 -2.89994 1888 ft 187 kts 273°
2026-05-04 21:34 53.34135 -2.92739 1921 ft 213 kts 315°
2026-05-04 21:34 53.35472 -2.93829 1928 ft 221 kts 349°
2026-05-04 21:35 53.36496 -2.93755 1934 ft 225 kts 11°
2026-05-04 21:35 53.37985 -2.92906 2050 ft 225 kts 19°
2026-05-04 21:35 53.39435 -2.91927 2310 ft 227 kts 20°
2026-05-04 21:35 53.40908 -2.90916 2410 ft 229 kts 20°
2026-05-04 21:36 53.42378 -2.89884 2432 ft 230 kts 24°
2026-05-04 21:36 53.43809 -2.87346 2360 ft 230 kts 67°
2026-05-04 21:36 53.44049 -2.85589 2121 ft 230 kts 84°
2026-05-04 21:36 53.44110 -2.82907 1930 ft 230 kts 89°
2026-05-04 21:37 53.44115 -2.80207 1935 ft 233 kts 90°
2026-05-04 21:37 53.44116 -2.77532 1934 ft 233 kts 90°
2026-05-04 21:37 53.44115 -2.74815 1935 ft 234 kts 90°
2026-05-04 21:37 53.44117 -2.72085 1936 ft 234 kts 90°
2026-05-04 21:38 53.44117 -2.69366 1934 ft 233 kts 90°
2026-05-04 21:38 53.44114 -2.66637 1937 ft 234 kts 90°
2026-05-04 21:38 53.44027 -2.63997 1912 ft 218 kts 105°
2026-05-04 21:38 53.43282 -2.61960 1936 ft 200 kts 143°
2026-05-04 21:39 53.42049 -2.61130 1955 ft 190 kts 174°
2026-05-04 21:39 53.40746 -2.60930 1944 ft 187 kts 179°
2026-05-04 21:39 53.39469 -2.60808 1935 ft 186 kts 180°
2026-05-04 21:39 53.38178 -2.60692 1935 ft 185 kts 182°
2026-05-04 21:40 53.36986 -2.61294 1928 ft 179 kts 221°
2026-05-04 21:40 53.36200 -2.62866 1942 ft 176 kts 238°
2026-05-04 21:40 53.35540 -2.64597 1938 ft 176 kts 240°
2026-05-04 21:40 53.34899 -2.66347 1938 ft 177 kts 240°
2026-05-04 21:41 53.34271 -2.68122 1879 ft 179 kts 246°
2026-05-04 21:41 53.34030 -2.70126 1649 ft 175 kts 266°
2026-05-04 21:41 53.33942 -2.72136 1421 ft 169 kts 266°
2026-05-04 21:41 53.33860 -2.73970 1206 ft 148 kts 266°
2026-05-04 21:42 53.33788 -2.75593 1014 ft 140 kts 266°
2026-05-04 21:42 53.33714 -2.77210 842 ft 139 kts 268°
2026-05-04 21:42 53.33627 -2.78815 633 ft 137 kts 269°
2026-05-04 21:42 53.33568 -2.80395 472 ft 136 kts 268°
2026-05-04 21:43 53.33501 -2.81965 280 ft 136 kts 267°
2026-05-04 21:43 53.33429 -2.83540 101 ft 135 kts 267°
2026-05-04 21:43 53.33369 -2.84932 75 ft 90 kts 265°
2026-05-04 21:43 53.33337 -2.85588 83 ft 44 kts 265°
2026-05-04 21:44 53.33316 -2.86077 77 ft 41 kts 266°
2026-05-04 21:44 53.33320 -2.86375 67 ft 16 kts 315°
2026-05-04 21:44 53.33404 -2.86427 82 ft 10 kts 355°
2026-05-04 21:44 53.33448 -2.86415 88 ft 3 kts 31°
2026-05-04 21:45 53.33461 -2.86371 85 ft 9 kts 75°
2026-05-04 21:45 53.33474 -2.86200 84 ft 20 kts 86°
2026-05-04 21:45 53.33484 -2.85963 88 ft 20 kts 86°
2026-05-04 21:45 53.33494 -2.85733 86 ft 19 kts 86°
2026-05-04 21:46 53.33502 -2.85566 86 ft 7 kts 84°
2026-05-04 21:46 53.33504 -2.85538 85 ft 2 kts 82°
2026-05-04 21:46 53.33517 -2.85511 90 ft 2 kts 27°
2026-05-04 21:46 53.33555 -2.85507 88 ft 12 kts 359°
2026-05-04 21:47 53.33631 -2.85510 87 ft 7 kts 356°
2026-05-04 21:47 53.33653 -2.85512 86 ft 1 kts 356°
2026-05-04 21:47 53.33659 -2.85513 89 ft 0 kts 356°
2026-05-04 21:47 53.33664 -2.85513 89 ft 0 kts 356°